Tillbaka till svenska Fidonet
English   Information   Debug  
FILM   0/18
FNEWS_PUBLISH   4631
FN_SYSOP   41969
FN_SYSOP_OLD1   71952
FTP_FIDO   0/2
FTSC_PUBLIC   0/13890
FUNNY   0/4886
GENEALOGY.EUR   0/71
GET_INFO   105
GOLDED   0/408
HAM   15978/16191
HOLYSMOKE   0/6791
HOT_SITES   0/1
HTMLEDIT   0/71
HUB203   466
HUB_100   264
HUB_400   39
HUMOR   0/29
IC   0/2851
INTERNET   0/424
INTERUSER   0/3
IP_CONNECT   719
JAMNNTPD   0/233
JAMTLAND   0/47
KATTY_KORNER   0/41
LAN   0/16
LINUX-USER   0/19
LINUXHELP   0/1155
LINUX   0/22231
LINUX_BBS   0/957
mail   18.68
mail_fore_ok   249
MENSA   0/341
MODERATOR   0/102
MONTE   0/992
MOSCOW_OKLAHOMA   0/1245
MUFFIN   0/783
MUSIC   0/321
N203_STAT   938
N203_SYSCHAT   313
NET203   321
NET204   69
NET_DEV   0/10
NORD.ADMIN   0/101
NORD.CHAT   0/2572
NORD.FIDONET   189
NORD.HARDWARE   0/28
NORD.KULTUR   0/114
NORD.PROG   0/32
NORD.SOFTWARE   0/88
NORD.TEKNIK   0/58
NORD   0/453
OCCULT_CHAT   0/93
OS2BBS   0/787
OS2DOSBBS   0/580
OS2HW   0/42
OS2INET   0/37
OS2LAN   0/134
OS2PROG   0/36
OS2REXX   0/113
OS2USER-L   207
OS2   0/4806
OSDEBATE   0/18996
PASCAL   0/490
PERL   0/457
PHP   0/45
POINTS   0/405
POLITICS   0/29554
POL_INC   0/14731
PSION   103
R20_ADMIN   1129
R20_AMATORRADIO   0/2
R20_BEST_OF_FIDONET   14
R20_CHAT   0/893
R20_DEPP   0/3
R20_DEV   399
R20_ECHO2   1545
R20_ECHOPRES   0/35
R20_ESTAT   0/719
R20_FIDONETPROG...
...RAM.MYPOINT
  0/2
R20_FIDONETPROGRAM   0/22
R20_FIDONET   0/248
R20_FILEFIND   0/24
R20_FILEFOUND   0/22
R20_HIFI   0/3
R20_INFO2   3435
R20_INTERNET   0/12940
R20_INTRESSE   0/60
R20_INTR_KOM   0/99
R20_KANDIDAT.CHAT   42
R20_KANDIDAT   28
R20_KOM_DEV   112
R20_KONTROLL   0/13360
R20_KORSET   0/18
R20_LOKALTRAFIK   0/24
R20_MODERATOR   0/1852
R20_NC   76
R20_NET200   245
R20_NETWORK.OTH...
...ERNETS
  0/13
R20_OPERATIVSYS...
...TEM.LINUX
  0/44
R20_PROGRAMVAROR   0/1
R20_REC2NEC   534
R20_SFOSM   0/341
R20_SF   0/108
R20_SPRAK.ENGLISH   0/1
R20_SQUISH   107
R20_TEST   2
R20_WORST_OF_FIDONET   20
RAR   0/9
RA_MULTI   106
RA_UTIL   0/162
REGCON.EUR   0/2066
REGCON   0/13
SCIENCE   0/1206
SF   0/239
SHAREWARE_SUPPORT   0/5146
SHAREWRE   0/14
SIMPSONS   0/169
STATS_OLD1   0/2539.065
STATS_OLD2   0/2530
STATS_OLD3   0/2395.095
STATS_OLD4   0/1692.25
SURVIVOR   0/495
SYSOPS_CORNER   0/3
SYSOP   0/84
TAGLINES   0/112
TEAMOS2   0/4530
TECH   0/2617
TEST.444   0/105
TRAPDOOR   0/19
TREK   0/755
TUB   0/290
UFO   0/40
UNIX   0/1316
USA_EURLINK   0/102
USR_MODEMS   0/1
VATICAN   0/2740
VIETNAM_VETS   0/14
VIRUS   0/378
VIRUS_INFO   0/201
VISUAL_BASIC   0/473
WHITEHOUSE   0/5187
WIN2000   0/101
WIN32   0/30
WIN95   865/4291
WIN95_OLD1   38038/70272
WINDOWS   0/1517
WWB_SYSOP   0/419
WWB_TECH   0/810
ZCC-PUBLIC   0/1
ZEC   4

 
4DOS   0/134
ABORTION   0/7
ALASKA_CHAT   0/506
ALLFIX_FILE   0/1313
ALLFIX_FILE_OLD1   0/7997
ALT_DOS   0/152
AMATEUR_RADIO   0/1039
AMIGASALE   0/14
AMIGA   0/331
AMIGA_INT   0/1
AMIGA_PROG   0/20
AMIGA_SYSOP   0/26
ANIME   0/15
ARGUS   0/924
ASCII_ART   0/340
ASIAN_LINK   0/651
ASTRONOMY   0/417
AUDIO   0/92
AUTOMOBILE_RACING   0/105
BABYLON5   0/17862
BAG   135
BATPOWER   0/361
BBBS.ENGLISH   0/382
BBSLAW   0/109
BBS_ADS   0/5290
BBS_INTERNET   0/507
BIBLE   0/3563
BINKD   0/1119
BINKLEY   0/215
BLUEWAVE   0/2173
CABLE_MODEMS   0/25
CBM   0/46
CDRECORD   0/66
CDROM   0/20
CLASSIC_COMPUTER   0/378
COMICS   0/15
CONSPRCY   0/899
COOKING   37329
COOKING_OLD1   0/24719
COOKING_OLD2   0/40862
COOKING_OLD3   0/37489
COOKING_OLD4   0/35496
COOKING_OLD5   9370
C_ECHO   0/189
C_PLUSPLUS   0/31
DIRTY_DOZEN   0/201
DOORGAMES   0/2125
DOS_INTERNET   0/196
duplikat   6002
ECHOLIST   13177/18295
EC_SUPPORT   0/318
ELECTRONICS   0/359
ELEKTRONIK.GER   1534
ENET.LINGUISTIC   0/13
ENET.POLITICS   0/4
ENET.SOFT   0/11701
ENET.SYSOP   34121
ENET.TALKS   0/32
ENGLISH_TUTOR   0/2000
EVOLUTION   0/1335
FDECHO   0/217
FDN_ANNOUNCE   0/7068
FIDONEWS   24486
FIDONEWS_OLD1   0/49742
FIDONEWS_OLD2   0/35949
FIDONEWS_OLD3   0/30874
FIDONEWS_OLD4   0/37224
FIDO_SYSOP   12892
FIDO_UTIL   0/180
FILEFIND   0/209
FILEGATE   0/212
Möte HAM, 16191 texter
 lista första sista föregående nästa
Text 392, 764 rader
Skriven 2005-05-13 01:31:14 av Amsat List (1:323/120.0)
Ärende: 
========
SB KEPS @ AMSAT  $ORB05132.O
Orbital Elements  05132.OSCAR

HR AMSAT ORBITAL ELEMENTS FOR OSCAR SATELLITES
FROM WA5QGD FORT WORTH,TX May 12, 2005
SEND SUBSCRIBE/UNSUBSCRIBE TO majordomo@amsat.org ONLY
BID: ORB05132.O
TO ALL RADIO AMATEURS BT

Satellite: AO-07
Catalog number: 07530
Epoch time:      05131.68039676
Element set:    0434
Inclination:      101.6270 deg
RA of node:       178.6073 deg
Eccentricity:    0.0012040
Arg of perigee:   306.2725 deg
Mean anomaly:     053.7233 deg
Mean motion:   12.53570772 rev/day
Decay rate:       -2.8e-07 rev/day^2
Epoch rev:           39507
Checksum:              277

Satellite: AO-10
Catalog number: 14129
Epoch time:      05129.81482473
Element set:    0179
Inclination:      027.2843 deg
RA of node:       033.3503 deg
Eccentricity:    0.6033150
Arg of perigee:   187.6734 deg
Mean anomaly:     155.4016 deg
Mean motion:   02.05867438 rev/day
Decay rate:      -3.23e-06 rev/day^2
Epoch rev:           16474
Checksum:              292

Satellite: UO-11
Catalog number: 14781
Epoch time:      05131.68186656
Element set:    0779
Inclination:      098.2010 deg
RA of node:       128.5173 deg
Eccentricity:    0.0010335
Arg of perigee:   114.2018 deg
Mean anomaly:     246.0269 deg
Mean motion:   14.79226264 rev/day
Decay rate:       4.59e-06 rev/day^2
Epoch rev:           13640
Checksum:              292

Satellite: RS-10/11
Catalog number: 18129
Epoch time:      05131.72599357
Element set:    0685
Inclination:      082.9228 deg
RA of node:       265.0931 deg
Eccentricity:    0.0013165
Arg of perigee:   124.3107 deg
Mean anomaly:     235.9266 deg
Mean motion:   13.72758186 rev/day
Decay rate:       -6.4e-07 rev/day^2
Epoch rev:           89607
Checksum:              324

Satellite: FO-20
Catalog number: 20480
Epoch time:      05132.52464159
Element set:     899
Inclination:      099.0197 deg
RA of node:       313.5242 deg
Eccentricity:    0.0540265
Arg of perigee:   320.4951 deg
Mean anomaly:     035.7908 deg
Mean motion:   12.83346610 rev/day
Decay rate:        1.0e-08 rev/day^2
Epoch rev:           71492
Checksum:              292

Satellite: RS-12/13
Catalog number: 21089
Epoch time:      05132.57145699
Element set:     911
Inclination:      082.9179 deg
RA of node:       297.3194 deg
Eccentricity:    0.0029238
Arg of perigee:   175.6975 deg
Mean anomaly:     184.4403 deg
Mean motion:   13.74449655 rev/day
Decay rate:        6.0e-08 rev/day^2
Epoch rev:           71560
Checksum:              339

Satellite: RS-15
Catalog number: 23439
Epoch time:      05131.59742603
Element set:    0889
Inclination:      064.8140 deg
RA of node:       166.7232 deg
Eccentricity:    0.0163330
Arg of perigee:   322.6278 deg
Mean anomaly:     036.3375 deg
Mean motion:   11.27551316 rev/day
Decay rate:       -3.9e-07 rev/day^2
Epoch rev:           42726
Checksum:              298

Satellite: FO-29
Catalog number: 24278
Epoch time:      05131.67493776
Element set:     955
Inclination:      098.5448 deg
RA of node:       186.1660 deg
Eccentricity:    0.0349946
Arg of perigee:   271.0376 deg
Mean anomaly:     085.0713 deg
Mean motion:   13.52910876 rev/day
Decay rate:       -2.1e-07 rev/day^2
Epoch rev:           43125
Checksum:              335

Satellite: SO-33
Catalog number: 25509
Epoch time:      05132.60079973
Element set:     367
Inclination:      031.4318 deg
RA of node:       233.7457 deg
Eccentricity:    0.0355911
Arg of perigee:   215.0417 deg
Mean anomaly:     142.6334 deg
Mean motion:   14.27995414 rev/day
Decay rate:       3.86e-06 rev/day^2
Epoch rev:           34173
Checksum:              304

Satellite: AO-40
Catalog number: 26609
Epoch time:      05130.70591919
Element set:     546
Inclination:      007.9869 deg
RA of node:       304.8942 deg
Eccentricity:    0.7938240
Arg of perigee:   037.2274 deg
Mean anomaly:     357.4293 deg
Mean motion:   01.25585631 rev/day
Decay rate:      -1.70e-06 rev/day^2
Epoch rev:            2079
Checksum:              325

Satellite: HAMSAT
Catalog number: 28650
Epoch time:      05131.72510521
Element set:      21
Inclination:      097.9130 deg
RA of node:       205.9408 deg
Eccentricity:    0.0026527
Arg of perigee:   224.8354 deg
Mean anomaly:     135.0666 deg
Mean motion:   14.80813202 rev/day
Decay rate:      1.054e-05 rev/day^2
Epoch rev:              96
Checksum:              253

/EX
SB KEPS @ AMSAT  $ORB05132.D
Orbital Elements  05132.MICROS

HR AMSAT ORBITAL ELEMENTS FOR THE MICROSATS
FROM WA5QGD FORT WORTH,TX May 12, 2005
SEND SUBSCRIBE/UNSUBSCRIBE TO majordomo@amsat.org ONLY
BID: ORB05132.D
TO ALL RADIO AMATEURS BT

Satellite: UO-14
Catalog number: 20437
Epoch time:      05132.54370827
Element set:     776
Inclination:      098.1923 deg
RA of node:       144.2615 deg
Eccentricity:    0.0009898
Arg of perigee:   303.7037 deg
Mean anomaly:     056.3222 deg
Mean motion:   14.31410416 rev/day
Decay rate:        3.0e-07 rev/day^2
Epoch rev:           79893
Checksum:              295

Satellite: AO-16
Catalog number: 20439
Epoch time:      05132.62472709
Element set:     462
Inclination:      098.2078 deg
RA of node:       159.6890 deg
Eccentricity:    0.0010367
Arg of perigee:   312.5493 deg
Mean anomaly:     047.4818 deg
Mean motion:   14.31673251 rev/day
Decay rate:        6.1e-07 rev/day^2
Epoch rev:           79900
Checksum:              309

Satellite: WO-18
Catalog number: 20441
Epoch time:      05132.70109560
Element set:     657
Inclination:      098.2192 deg
RA of node:       164.1162 deg
Eccentricity:    0.0010989
Arg of perigee:   313.0451 deg
Mean anomaly:     046.9824 deg
Mean motion:   14.31746678 rev/day
Decay rate:        3.8e-07 rev/day^2
Epoch rev:           79907
Checksum:              307

